Regional Weather Roundup
Issued by NWS Grand Forks, ND

Home | Current Version | Previous Version | Text Only | Print | Product List | Glossary Off
Versions: 1 2 3 4 5 6 7 8 9 10 11 12 13 14 15 16 17 18 19 20 21 22 23 24 25 26 27 28 29 30 31 32 33 34 35 36 37 38 39 40 41 42 43 44 45 46 47 48 49 50

511
ASUS43 KFGF 281810
RWRFGF
PRAIRIE TO PINES  WEATHER ROUNDUP
NATIONAL WEATHER SERVICE EASTERN NORTH DAKOTA/GRAND FORKS ND
100 PM CDT TUE MAR 28 2017

 **SATELLITE DATA USED TO AUGMENT SKY COVER AT AUTOMATED STATIONS**
 *****  WEATHER ACROSS EASTERN NORTH DAKOTA  *****

CITY           SKY/WX    TMP DP  RH WIND       PRES   REMARKS
GRAND FORKS    PTSUNNY   49  39  68 N6        30.20S
6HR MIN TEMP:  33; 6HR MAX TEMP:  49;

GRAND FRKS AFB FAIR      46  37  70 N7        30.21S
DEVILS LAKE    FAIR      47  37  68 SE9       30.18S
6HR MIN TEMP:  32; 6HR MAX TEMP:  48;

FARGO          FAIR      49  42  77 NE5       30.18S
WAHPETON ARPT    N/A     46  37  71 CALM      30.18F
$$

 ***** WEATHER ACROSS CENTRAL AND WESTERN NORTH DAKOTA  *****

CITY           SKY/WX    TMP DP  RH WIND       PRES   REMARKS
BISMARCK       FAIR      50  38  63 E5        30.14S
6HR MIN TEMP:  32; 6HR MAX TEMP:  50;

MINOT          CLOUDY    43  38  82 SE8       30.12F
6HR MIN TEMP:  34; 6HR MAX TEMP:  43;

JAMESTOWN      FAIR      47  40  76 E6        30.16F
6HR MIN TEMP:  30; 6HR MAX TEMP:  47;

MINOT AFB      CLOUDY    39  37  93 SE10      30.12F
GARRISON         N/A     40  38  93 E6        30.12S
WILLISTON      FAIR      47  38  71 S6        30.09S
6HR MIN TEMP:  37; 6HR MAX TEMP:  48;

DICKINSON      FAIR      55  33  43 SE14      30.05F
6HR MIN TEMP:  29; 6HR MAX TEMP:  55;

HETTINGER      FAIR      56  35  45 E18       30.07F
6HR MIN TEMP:  30; 6HR MAX TEMP:  56;

$$

 *****  OTHER AIRPORT OBSERVATIONS IN OUR AREA  *****

CITY           SKY/WX    TMP DP  RH WIND       PRES   REMARKS
WALHALLA       NOT AVBL
GRAFTON AIRPOR FAIR      43  39  87 N6        30.23F
VALLEY CITY AR FAIR      48  45  87 VRB3      30.20R
CANDO          NOT AVBL
CAVALIER APRT    N/A     37  32  81 NW13      30.23S
GWINNER        CLEAR     46  41  81 MISG      30.17F
SHEYENNE NWR     N/A     49  41  74 CALM      29.95S
ROLLA          FAIR      36  36 100 NE7       30.19S
 ***** THE ABOVE OBSERVATIONS ARE NON NWS ARE NOT QUALITY
       CONTROLLED AND MAY MIS-REPORT RAIN FOR SNOW...
$$

  *****  WEATHER ACROSS NORTHERN MINNESOTA  *****

CITY           SKY/WX    TMP DP  RH WIND       PRES   REMARKS
FLAG ISLAND    FAIR      39  25  56 N12       30.22F
WARROAD        FAIR      39  30  70 NE7       30.22S
ROSEAU         FAIR      50  36  57 E7        30.21R
HALLOCK        PTSUNNY   43  37  81 CALM      30.22R
THF RVR FALLS  FAIR      51  34  52 NE8       30.20R
BAUDETTE       FAIR      51  31  46 N8        30.19F
6HR MIN TEMP:  30; 6HR MAX TEMP:  51;

WASKISH        FAIR      55  34  44 N8        30.17S
CROOKSTON      FAIR      52  39  62 NE6       30.20S
GREENBUSH NDAW   N/A     46  36  66 NE9         N/A
$$
  *****  WEATHER ACROSS CENTRAL AND WEST MINNESOTA  *****

CITY           SKY/WX    TMP DP  RH WIND       PRES   REMARKS
FOSSTON        FAIR      54  39  58 E6        30.18R
BEMIDJI        FAIR      54  29  39 E5        30.17R
PARK RAPIDS    FAIR      58  26  29 NW3       30.14S
6HR MIN TEMP:  28; 6HR MAX TEMP:  58;

ELBOW LAKE     FAIR      53  40  61 NW5       30.17S
6HR MIN TEMP:  31; 6HR MAX TEMP:  53;

WADENA         FAIR      57  36  44 CALM      30.15S
DETROIT LAKES  FAIR      55  32  41 NW3       30.17S
MOORHEAD       FAIR      43  43 100 N9        30.19S
FERGUS FALLS   FAIR      54  41  62 SW5       30.20S
MORRIS MN      FAIR      57  37  47 CALM      30.15F
STAPLES        FAIR      57  34  41 CALM      30.15S
$$
  *****  WEATHER ELSEWHERE ACROSS MINNESOTA  *****

CITY           SKY/WX    TMP DP  RH WIND       PRES   REMARKS
DULUTH         FAIR      56  32  40 CALM      30.15S
6HR MIN TEMP:  26; 6HR MAX TEMP:  56;

INTRNTL FALLS  FAIR      50  29  44 N7        30.19S
6HR MIN TEMP:  34; 6HR MAX TEMP:  50;

ELY            FAIR      52  25  35 NE5       30.16S
CLOQUET        FAIR      55  27  33 CALM      30.15S
WHEATON        FAIR      46  37  71 NW5       30.20S
BRAINERD       FAIR      58  34  40 SW6       30.15F
6HR MIN TEMP:  25; 6HR MAX TEMP:  58;

HIBBING        CLOUDY    53  30  41 VRB5      30.15R
6HR MIN TEMP:  23; 6HR MAX TEMP:  54;

ALEXANDRIA     FAIR      58  35  42 W5        30.16S
6HR MIN TEMP:  32; 6HR MAX TEMP:  59;

SAINT CLOUD    FAIR      59  32  36 VRB5      30.16R
6HR MIN TEMP:  27; 6HR MAX TEMP:  59;

MINNEAPOLIS    FAIR      58  36  43 SE6       30.15F
6HR MIN TEMP:  35; 6HR MAX TEMP:  59;

$$

  *****  WEATHER ACROSS SOUTH DAKOTA  *****

CITY           SKY/WX    TMP DP  RH WIND       PRES   REMARKS
SIOUX FALLS    CLOUDY    56  37  49 CALM      30.13F
6HR MIN TEMP:  30; 6HR MAX TEMP:  57;

BROOKINGS      FAIR      55  38  52 SE7         N/A
WATERTOWN      FAIR      54  36  50 SE7       30.15R
6HR MIN TEMP:  29; 6HR MAX TEMP:  55;

HURON          FAIR      55  39  54 SE8       30.14S
6HR MIN TEMP:  33; 6HR MAX TEMP:  56;

SISSETON         N/A     52  42  69 CALM      30.17S
ABERDEEN       FAIR      53  37  54 E8        30.16S
6HR MIN TEMP:  29; 6HR MAX TEMP:  54;

MITCHELL       FAIR      57  39  51 MISG      30.14F
PIERRE         PTSUNNY   53  42  66 S13       30.09S
6HR MIN TEMP:  40; 6HR MAX TEMP:  53;

MOBRIDGE       FAIR      56  37  49 SE8       30.09S
RAPID CITY     LGT RAIN  42  39  89 NE5       30.04R
6HR MIN TEMP:  39; 6HR MAX TEMP:  43; 6HR PCP:  0.12;

$$

  *****  SOME WEATHER IN NEARBY STATES *****

CITY           SKY/WX    TMP DP  RH WIND       PRES   REMARKS
GLASGOW MT     FAIR      41  35  79 S3        30.09F
6HR MIN TEMP:  33; 6HR MAX TEMP:  41;

GREAT FALLS MT FAIR      49  23  36 SW17      30.10F
6HR MIN TEMP:  30; 6HR MAX TEMP:  49;

CHEYENNE WY    LGT RAIN  40  38  93 N15       29.91R FOG
6HR MIN TEMP:  37; 6HR MAX TEMP:  40; 6HR PCP: TRACE;

SCOTTSBLUFF NE LGT RAIN  46  43  89 E22       29.93S
6HR MIN TEMP:  45; 6HR MAX TEMP:  47; 6HR PCP:  0.12;

OMAHA NE       CLOUDY    49  41  74 E9        30.12F
6HR MIN TEMP:  39; 6HR MAX TEMP:  50;

DES MOINES IA  CLOUDY    51  42  71 E3        30.13F
6HR MIN TEMP:  48; 6HR MAX TEMP:  52;

DAVENPORT IA   CLOUDY    50  44  80 E7        30.14S
6HR MIN TEMP:  46; 6HR MAX TEMP:  50; 6HR PCP:  0.01;

CHICAGO IL     PTSUNNY   48  37  65 N13       30.12S
6HR MIN TEMP:  41; 6HR MAX TEMP:  48;

EAU CLAIRE WI  FAIR      53  37  54 SE5       30.16S
6HR MIN TEMP:  29; 6HR MAX TEMP:  53;

LA CROSSE WI   FAIR      54  40  59 NW7       30.15F
6HR MIN TEMP:  32; 6HR MAX TEMP:  54;

$$

  *****  SOME NATIONAL WEATHER *****

CITY           SKY/WX    TMP DP  RH WIND       PRES   REMARKS
LA GUARDIA NY  LGT RAIN  43  40  89 NE10      29.94R FOG
6HR MIN TEMP:  42; 6HR MAX TEMP:  44; 6HR PCP:  0.12;

RALEIGH NC     PTSUNNY   72  59  63 SW8       29.91F
6HR MIN TEMP:  61; 6HR MAX TEMP:  72; 6HR PCP:  0.01;

ATLANTA GA     FAIR      78  62  57 W10G18    29.99F
6HR MIN TEMP:  62; 6HR MAX TEMP:  78; 6HR PCP:  0.01;

NEW ORLEANS LA FAIR      81  67  62 SE8       30.00F
6HR MIN TEMP:  68; 6HR MAX TEMP:  81;

OKLAHOMA CITY  PTSUNNY   64  49  57 E14       29.87F
6HR MIN TEMP:  49; 6HR MAX TEMP:  65;

ALBUQUERQUE NM FAIR      51  37  58 NW8       29.81F
6HR MIN TEMP:  42; 6HR MAX TEMP:  51; 6HR PCP:  0.07;

SALT LAKE CITY FAIR      48  34  58 NW7G18    30.14S
6HR MIN TEMP:  38; 6HR MAX TEMP:  48;

LOS ANGELES CA FAIR      69  43  38 CALM      30.04R
6HR MIN TEMP:  54; 6HR MAX TEMP:  69;

BOISE ID       FAIR      48  32  53 NW12      30.29R
6HR MIN TEMP:  32; 6HR M



USA.gov is the U.S. government's official web portal to all federal, state and local government web resources and services.